Location: Auckland
(36.8670°S, 174.7670°E)
Time: 09:57:59
(UTC+12:00)

Courier 1B Rocket - Pass Details

Date: 23 July 2019
Orbit: 920 x 1202 km, 28.3° (Epoch: 24 August)

Event Time Altitude Azimuth Distance (km) Brightness Sun altitude
Rises 07:44:44 0° 275° (W) 4,019 7.7 2.4°
Reaches altitude 10° 07:47:53 10° 284° (WNW) 3,018 7.1 2.9°
Maximum altitude 07:54:25 34° 345° (NNW) 1,703 6.5 4.1°
Drops below altitude 10° 08:00:32 10° 47° (NE) 2,824 9.5 5.1°
Sets 08:03:24 0° 56° (ENE) 3,729 10.9 5.6°
